TimeCST,TemperatureF,Dew PointF,Humidity,Sea Level PressureIn,VisibilityMPH,Wind Direction,Wind SpeedMPH,Gust SpeedMPH,PrecipitationIn,Events,Conditions,WindDirDegrees,DateUTC
12:15 AM,48.2,23.0,37,30.13,10.0,SE,18.4,24.2,N/A,,Overcast,140,2013-02-20 06:15:00
12:55 AM,46.4,30.2,53,30.13,10.0,SSE,19.6,25.3,N/A,,Light Drizzle,150,2013-02-20 06:55:00
1:15 AM,44.6,32.0,61,30.12,10.0,SSE,18.4,-,N/A,Rain,Light Rain,150,2013-02-20 07:15:00
1:35 AM,44.6,33.8,66,30.12,10.0,SE,13.8,-,N/A,,Light Drizzle,140,2013-02-20 07:35:00
2:15 AM,42.8,35.6,76,30.12,10.0,SE,16.1,21.9,N/A,Rain,Light Rain,140,2013-02-20 08:15:00
2:35 AM,42.8,35.6,76,30.12,10.0,SE,17.3,-,N/A,,Drizzle,140,2013-02-20 08:35:00
2:55 AM,41.0,35.6,81,30.11,7.0,SE,15.0,-,0.01,Rain,Rain,130,2013-02-20 08:55:00
3:15 AM,41.0,35.6,81,30.10,10.0,SE,15.0,-,0.01,Rain,Rain,130,2013-02-20 09:15:00
3:35 AM,41.0,37.4,87,30.10,10.0,SE,15.0,-,0.02,Rain,Light Rain,130,2013-02-20 09:35:00
3:55 AM,41.0,37.4,87,30.10,7.0,SE,15.0,-,0.03,Rain,Light Rain,130,2013-02-20 09:55:00
4:15 AM,41.0,37.4,87,30.09,7.0,SE,16.1,-,0.01,Rain,Rain,130,2013-02-20 10:15:00
4:35 AM,41.0,37.4,87,30.08,7.0,ESE,17.3,21.9,0.02,Rain,Light Rain,120,2013-02-20 10:35:00
4:55 AM,41.0,37.4,87,30.09,5.0,SE,16.1,23.0,0.04,Rain,Rain,130,2013-02-20 10:55:00
5:15 AM,41.0,37.4,87,30.09,5.0,SE,17.3,25.3,0.02,Rain,Light Rain,130,2013-02-20 11:15:00
5:35 AM,41.0,37.4,87,30.09,7.0,SE,18.4,26.5,0.03,Rain,Light Rain,130,2013-02-20 11:35:00
5:55 AM,41.0,37.4,87,30.08,5.0,SE,19.6,25.3,0.05,Rain,Light Rain,140,2013-02-20 11:55:00
6:15 AM,41.0,37.4,87,30.07,5.0,SE,19.6,25.3,0.02,Rain,Light Rain,130,2013-02-20 12:15:00
6:35 AM,41.0,37.4,87,30.06,5.0,SE,20.7,27.6,0.03,Rain,Light Rain,140,2013-02-20 12:35:00
7:15 AM,41.0,37.4,87,30.07,10.0,SE,19.6,-,N/A,Rain,Rain,140,2013-02-20 13:15:00
7:35 AM,41.0,37.4,87,30.06,7.0,SE,23.0,26.5,N/A,Rain,Rain,130,2013-02-20 13:35:00
7:55 AM,41.0,37.4,87,30.06,7.0,SE,20.7,25.3,N/A,Rain,Rain,130,2013-02-20 13:55:00
8:15 AM,41.0,37.4,87,30.08,10.0,SE,21.9,-,N/A,Rain,Light Rain,130,2013-02-20 14:15:00
8:35 AM,41.0,37.4,87,30.09,10.0,SE,21.9,26.5,N/A,,Overcast,140,2013-02-20 14:35:00
8:55 AM,41.0,37.4,87,30.08,10.0,SE,19.6,26.5,N/A,,Overcast,130,2013-02-20 14:55:00
9:15 AM,41.0,37.4,87,30.06,10.0,SE,23.0,32.2,N/A,,Overcast,130,2013-02-20 15:15:00
9:35 AM,41.0,37.4,87,30.06,10.0,SE,21.9,29.9,N/A,,Overcast,130,2013-02-20 15:35:00
9:55 AM,41.0,37.4,87,30.05,10.0,ESE,25.3,32.2,N/A,,Overcast,120,2013-02-20 15:55:00
10:15 AM,41.0,37.4,87,30.05,10.0,SE,24.2,28.8,N/A,,Overcast,130,2013-02-20 16:15:00
10:35 AM,42.8,37.4,81,30.05,10.0,ESE,27.6,34.5,N/A,,Overcast,120,2013-02-20 16:35:00
10:55 AM,42.8,37.4,81,30.04,10.0,SE,29.9,33.4,N/A,,Overcast,130,2013-02-20 16:55:00
11:15 AM,42.8,35.6,76,30.04,10.0,SE,27.6,40.3,N/A,,Overcast,130,2013-02-20 17:15:00
11:35 AM,42.8,35.6,76,30.04,10.0,SE,33.4,43.7,N/A,,Mostly Cloudy,130,2013-02-20 17:35:00
11:55 AM,41.0,35.6,81,30.04,10.0,SE,26.5,39.1,N/A,Rain,Light Rain,130,2013-02-20 17:55:00
12:15 PM,41.0,35.6,81,30.03,10.0,ESE,32.2,42.6,N/A,,Overcast,120,2013-02-20 18:15:00
12:35 PM,41.0,35.6,81,30.02,10.0,SE,26.5,38.0,N/A,,Overcast,130,2013-02-20 18:35:00
12:55 PM,41.0,35.6,81,30.00,10.0,ESE,29.9,35.7,N/A,,Overcast,120,2013-02-20 18:55:00
1:15 PM,41.0,35.6,81,29.99,10.0,SE,23.0,32.2,N/A,,Overcast,130,2013-02-20 19:15:00
1:35 PM,41.0,35.6,81,29.98,10.0,SE,26.5,36.8,N/A,,Overcast,130,2013-02-20 19:35:00
1:55 PM,41.0,35.6,81,29.97,10.0,ESE,24.2,32.2,N/A,,Overcast,120,2013-02-20 19:55:00
2:15 PM,41.0,35.6,81,29.96,7.0,ESE,25.3,33.4,N/A,,Overcast,120,2013-02-20 20:15:00
2:55 PM,39.2,35.6,87,29.94,2.5,ESE,24.2,28.8,N/A,,Overcast,120,2013-02-20 20:55:00
3:15 PM,39.2,35.6,87,29.92,5.0,ESE,23.0,26.5,N/A,,Overcast,120,2013-02-20 21:15:00
3:35 PM,37.4,35.6,93,29.92,3.0,ESE,21.9,26.5,N/A,,Overcast,120,2013-02-20 21:35:00
3:55 PM,37.4,35.6,93,29.91,2.0,ESE,20.7,-,N/A,Snow,Light Snow,120,2013-02-20 21:55:00
4:15 PM,37.4,35.6,93,29.91,2.5,ESE,18.4,-,N/A,,Overcast,120,2013-02-20 22:15:00
4:35 PM,39.2,35.6,87,29.89,2.0,ESE,18.4,23.0,N/A,,Unknown,120,2013-02-20 22:35:00
4:55 PM,39.2,35.6,87,29.88,2.5,ESE,21.9,25.3,N/A,,Overcast,110,2013-02-20 22:55:00
5:15 PM,39.2,35.6,87,29.87,1.8,ESE,20.7,25.3,N/A,,Unknown,120,2013-02-20 23:15:00
5:35 PM,37.4,35.6,93,29.87,1.5,ESE,23.0,27.6,N/A,Snow,Light Snow,120,2013-02-20 23:35:00
6:15 PM,37.4,35.6,93,29.88,1.5,ESE,19.6,-,N/A,Snow,Light Snow,120,2013-02-21 00:15:00
6:35 PM,37.4,35.6,93,29.88,1.2,ESE,18.4,23.0,N/A,Snow,Light Snow,120,2013-02-21 00:35:00
6:55 PM,37.4,35.6,93,29.88,1.2,ESE,18.4,23.0,N/A,Snow,Light Snow,120,2013-02-21 00:55:00
7:15 PM,37.4,35.6,93,29.87,1.8,ESE,18.4,25.3,N/A,Snow,Light Snow,120,2013-02-21 01:15:00
7:35 PM,37.4,35.6,93,29.88,1.5,ESE,20.7,25.3,N/A,Snow,Light Snow,120,2013-02-21 01:35:00
7:55 PM,37.4,35.6,93,29.87,1.8,ESE,23.0,28.8,N/A,Snow,Light Snow,110,2013-02-21 01:55:00
8:15 PM,37.4,35.6,93,29.87,2.5,ESE,19.6,27.6,N/A,,Overcast,110,2013-02-21 02:15:00
8:35 PM,37.4,35.6,93,29.87,2.5,ESE,23.0,26.5,N/A,,Overcast,120,2013-02-21 02:35:00
8:55 PM,37.4,35.6,93,29.87,2.5,ESE,18.4,23.0,N/A,,Overcast,110,2013-02-21 02:55:00
9:15 PM,37.4,35.6,93,29.86,2.5,East,17.3,24.2,N/A,,Overcast,100,2013-02-21 03:15:00
9:35 PM,35.6,35.6,100,29.86,2.0,East,16.1,24.2,N/A,,Overcast,100,2013-02-21 03:35:00
9:55 PM,35.6,33.8,93,29.87,2.0,ESE,17.3,24.2,N/A,,Overcast,110,2013-02-21 03:55:00
10:15 PM,35.6,33.8,93,29.86,1.2,East,17.3,25.3,N/A,Snow,Light Snow,100,2013-02-21 04:15:00
10:35 PM,35.6,33.8,93,29.85,1.5,ESE,17.3,21.9,N/A,Snow,Light Snow,110,2013-02-21 04:35:00
10:55 PM,35.6,33.8,93,29.84,1.5,ESE,17.3,23.0,N/A,Snow,Light Snow,110,2013-02-21 04:55:00
11:15 PM,35.6,33.8,93,29.82,1.5,ESE,13.8,19.6,N/A,,Overcast,110,2013-02-21 05:15:00
11:35 PM,35.6,33.8,93,29.79,1.8,ESE,19.6,24.2,N/A,Snow,Light Snow,110,2013-02-21 05:35:00
11:55 PM,35.6,33.8,93,29.73,1.8,East,21.9,-,N/A,,Overcast,90,2013-02-21 05:55:00